TimeCST,TemperatureF,Dew PointF,Humidity,Sea Level PressureIn,VisibilityMPH,Wind Direction,Wind SpeedMPH,Gust SpeedMPH,PrecipitationIn,Events,Conditions,WindDirDegrees,DateUTC
12:15 AM,51.8,42.8,71,29.65,10.0,SSW,20.7,-,N/A,,Clear,200,2013-01-12 06:15:00
12:35 AM,51.8,42.8,71,29.65,10.0,SSW,21.9,26.5,N/A,,Clear,200,2013-01-12 06:35:00
12:55 AM,51.8,42.8,71,29.65,10.0,SSW,20.7,28.8,N/A,,Clear,200,2013-01-12 06:55:00
1:15 AM,51.8,42.8,71,29.66,10.0,SSW,19.6,23.0,N/A,,Clear,200,2013-01-12 07:15:00
1:35 AM,50.0,42.8,76,29.66,10.0,SSW,18.4,-,N/A,,Clear,200,2013-01-12 07:35:00
1:55 AM,50.0,42.8,76,29.68,10.0,SSW,17.3,23.0,N/A,,Clear,200,2013-01-12 07:55:00
2:15 AM,48.2,42.8,82,29.68,10.0,SSW,15.0,-,N/A,,Clear,200,2013-01-12 08:15:00
2:35 AM,48.2,42.8,82,29.69,10.0,SSW,16.1,-,N/A,,Clear,200,2013-01-12 08:35:00
2:55 AM,50.0,42.8,76,29.70,10.0,SSW,16.1,-,N/A,,Clear,200,2013-01-12 08:55:00
3:15 AM,50.0,42.8,76,29.70,10.0,SSW,17.3,24.2,N/A,,Clear,200,2013-01-12 09:15:00
3:35 AM,50.0,42.8,76,29.70,10.0,SSW,16.1,-,N/A,,Clear,210,2013-01-12 09:35:00
3:55 AM,50.0,42.8,76,29.71,10.0,SW,17.3,21.9,N/A,,Clear,220,2013-01-12 09:55:00
4:15 AM,50.0,42.8,76,29.71,10.0,SW,18.4,-,N/A,,Clear,220,2013-01-12 10:15:00
4:35 AM,48.2,42.8,82,29.73,10.0,SW,17.3,-,N/A,,Clear,230,2013-01-12 10:35:00
4:55 AM,48.2,39.2,71,29.75,10.0,West,29.9,39.1,N/A,,Clear,280,2013-01-12 10:55:00
5:15 AM,41.0,33.8,76,29.80,10.0,WNW,25.3,36.8,N/A,,Partly Cloudy,290,2013-01-12 11:15:00
5:35 AM,39.2,33.8,81,29.81,10.0,WNW,24.2,31.1,N/A,,Clear,290,2013-01-12 11:35:00
5:55 AM,37.4,30.2,75,29.83,10.0,West,17.3,-,N/A,,Clear,280,2013-01-12 11:55:00
6:15 AM,35.6,30.2,81,29.84,10.0,West,12.7,-,N/A,,Mostly Cloudy,280,2013-01-12 12:15:00
6:35 AM,35.6,30.2,81,29.86,10.0,WNW,19.6,-,N/A,,Overcast,290,2013-01-12 12:35:00
6:55 AM,33.8,26.6,75,29.88,10.0,West,25.3,32.2,N/A,,Mostly Cloudy,280,2013-01-12 12:55:00
7:15 AM,33.8,26.6,75,29.90,10.0,West,21.9,29.9,N/A,,Partly Cloudy,280,2013-01-12 13:15:00
7:35 AM,32.0,26.6,80,29.91,10.0,West,19.6,25.3,N/A,,Clear,280,2013-01-12 13:35:00
7:55 AM,32.0,26.6,80,29.92,10.0,West,19.6,26.5,N/A,,Scattered Clouds,270,2013-01-12 13:55:00
8:15 AM,32.0,26.6,80,29.93,10.0,WNW,19.6,24.2,N/A,,Scattered Clouds,290,2013-01-12 14:15:00
8:35 AM,32.0,24.8,75,29.94,10.0,West,17.3,26.5,N/A,,Mostly Cloudy,280,2013-01-12 14:35:00
8:55 AM,30.2,24.8,80,29.96,10.0,WNW,24.2,27.6,N/A,,Mostly Cloudy,290,2013-01-12 14:55:00
9:15 AM,30.2,21.2,69,29.97,10.0,West,19.6,-,N/A,,Partly Cloudy,280,2013-01-12 15:15:00
9:35 AM,30.2,23.0,75,29.99,10.0,WNW,17.3,-,N/A,,Partly Cloudy,290,2013-01-12 15:35:00
9:55 AM,30.2,21.2,69,29.99,10.0,WNW,15.0,-,N/A,,Scattered Clouds,290,2013-01-12 15:55:00
10:15 AM,30.2,21.2,69,30.00,10.0,WNW,16.1,-,N/A,,Partly Cloudy,290,2013-01-12 16:15:00
10:35 AM,28.4,19.4,69,30.01,10.0,West,15.0,18.4,N/A,,Clear,270,2013-01-12 16:35:00
10:55 AM,30.2,21.2,69,30.00,10.0,West,17.3,-,N/A,,Partly Cloudy,280,2013-01-12 16:55:00
11:15 AM,30.2,21.2,69,30.01,10.0,West,16.1,19.6,N/A,,Partly Cloudy,280,2013-01-12 17:15:00
11:55 AM,30.2,21.2,69,30.01,10.0,West,12.7,-,N/A,,Scattered Clouds,280,2013-01-12 17:55:00
12:15 PM,30.2,21.2,69,30.00,10.0,West,15.0,-,N/A,,Partly Cloudy,280,2013-01-12 18:15:00
12:35 PM,30.2,21.2,69,30.00,10.0,West,15.0,-,N/A,,Scattered Clouds,280,2013-01-12 18:35:00
12:55 PM,30.2,21.2,69,29.99,10.0,West,16.1,-,N/A,,Mostly Cloudy,270,2013-01-12 18:55:00
1:15 PM,30.2,21.2,69,30.00,10.0,West,15.0,-,N/A,,Scattered Clouds,280,2013-01-12 19:15:00
1:35 PM,30.2,21.2,69,29.99,10.0,West,13.8,-,N/A,,Partly Cloudy,280,2013-01-12 19:35:00
1:55 PM,30.2,19.4,64,30.00,10.0,WNW,17.3,-,N/A,,Clear,290,2013-01-12 19:55:00
2:15 PM,28.4,19.4,69,30.00,10.0,WNW,18.4,-,N/A,,Partly Cloudy,290,2013-01-12 20:15:00
2:35 PM,28.4,17.6,64,30.01,10.0,WNW,18.4,-,N/A,,Mostly Cloudy,300,2013-01-12 20:35:00
2:55 PM,28.4,17.6,64,30.01,10.0,WNW,16.1,-,N/A,,Mostly Cloudy,300,2013-01-12 20:55:00
3:15 PM,28.4,17.6,64,30.04,10.0,WNW,18.4,-,N/A,,Clear,300,2013-01-12 21:15:00
3:35 PM,26.6,17.6,69,30.05,10.0,WNW,16.1,-,N/A,,Clear,290,2013-01-12 21:35:00
3:55 PM,26.6,17.6,69,30.04,10.0,WNW,16.1,-,N/A,,Clear,290,2013-01-12 21:55:00
4:15 PM,26.6,15.8,64,30.03,10.0,NW,13.8,-,N/A,,Scattered Clouds,310,2013-01-12 22:15:00
4:35 PM,26.6,17.6,69,30.01,10.0,WNW,15.0,-,N/A,,Scattered Clouds,300,2013-01-12 22:35:00
4:55 PM,26.6,15.8,64,30.01,10.0,NW,6.9,-,N/A,,Scattered Clouds,310,2013-01-12 22:55:00
5:15 PM,26.6,15.8,64,30.00,10.0,WNW,9.2,-,N/A,,Clear,300,2013-01-12 23:15:00
5:35 PM,26.6,15.8,64,29.99,10.0,NW,11.5,-,N/A,,Clear,310,2013-01-12 23:35:00
5:55 PM,26.6,15.8,64,30.01,10.0,WNW,15.0,-,N/A,,Partly Cloudy,300,2013-01-12 23:55:00
6:15 PM,26.6,15.8,64,30.01,10.0,NW,16.1,-,N/A,,Scattered Clouds,310,2013-01-13 00:15:00
6:35 PM,26.6,17.6,69,30.01,10.0,NW,13.8,-,N/A,,Scattered Clouds,310,2013-01-13 00:35:00
7:15 PM,26.6,15.8,64,30.06,10.0,WNW,17.3,-,N/A,,Partly Cloudy,290,2013-01-13 01:15:00
7:35 PM,24.8,15.8,69,30.05,10.0,WNW,17.3,-,N/A,,Clear,290,2013-01-13 01:35:00
7:55 PM,24.8,15.8,69,30.06,10.0,WNW,16.1,-,N/A,,Clear,290,2013-01-13 01:55:00
8:15 PM,24.8,15.8,69,30.06,10.0,WNW,18.4,-,N/A,,Clear,300,2013-01-13 02:15:00
8:35 PM,23.0,17.6,80,30.04,1.0,NW,13.8,-,N/A,,Overcast,310,2013-01-13 02:35:00
8:55 PM,21.2,17.6,86,30.02,2.5,NW,10.4,16.1,N/A,,Partly Cloudy,320,2013-01-13 02:55:00
9:15 PM,21.2,17.6,86,29.98,4.0,NNW,11.5,-,N/A,,Partly Cloudy,330,2013-01-13 03:15:00
9:35 PM,21.2,17.6,86,29.98,3.0,NNW,12.7,16.1,N/A,,Mostly Cloudy,340,2013-01-13 03:35:00
9:55 PM,21.2,17.6,86,29.98,5.0,NNW,15.0,18.4,N/A,,Scattered Clouds,330,2013-01-13 03:55:00
10:15 PM,21.2,15.8,80,29.97,5.0,NNW,12.7,-,N/A,,Partly Cloudy,340,2013-01-13 04:15:00
10:35 PM,21.2,15.8,80,29.98,5.0,North,18.4,-,N/A,,Mostly Cloudy,350,2013-01-13 04:35:00
10:55 PM,21.2,15.8,80,30.02,3.0,NNW,12.7,-,N/A,,Overcast,330,2013-01-13 04:55:00
11:15 PM,21.2,15.8,80,30.02,2.0,NW,10.4,-,N/A,,Overcast,320,2013-01-13 05:15:00
11:35 PM,19.4,15.8,86,30.00,1.5,NNW,13.8,-,N/A,,Overcast,330,2013-01-13 05:35:00
11:55 PM,19.4,15.8,86,30.00,3.0,NW,12.7,-,N/A,,Mostly Cloudy,320,2013-01-13 05:55:00